This demonstration page uses our WeatherBlox Daily Observations layout. Learn more.

Left ArrowRight Arrow

Hourly Observations for January 28, 2015

Temp ( °F °C ) Dew Point ( °F °C ) Humidity (%) Winds ( mph kmh ) Pressure ( in mb ) Visibility ( mi km ) Precip ( " mm )
12:51 am 00:51 Clear 48 8.9 36 2.2 63 63 N N/A 30.11 1020 10 16 N/A
1:51 am 01:51 Clear 47 8.3 36 2.2 66 66 N N/A 30.11 1020 10 16 N/A
2:51 am 02:51 Clear 45 7.2 36 2.2 71 71 N N/A 30.11 1020 10 16 N/A
3:51 am 03:51 Clear 43 6.1 35 1.7 74 74 SSE 3 6 30.11 1020 10 16 N/A
4:51 am 04:51 Clear 44 6.7 35 1.7 71 71 SSE 3 6 30.12 1020 10 16 N/A
5:51 am 05:51 Clear 42 5.6 35 1.7 76 76 S 5 7 30.14 1021 10 16 N/A
6:51 am 06:51 Clear 41 5 35 1.7 79 79 E 6 9 30.16 1021 10 16 N/A
7:51 am 07:51 Sunny 43 6.1 35 1.7 74 74 ESE 5 7 30.18 1022 10 16 N/A
8:51 am 08:51 Sunny 49 9.4 37 2.8 64 64 SSE 7 11 30.17 1022 10 16 N/A
9:51 am 09:51 Sunny 55 12.8 38 3.3 53 53 SE 3 6 30.17 1022 10 16 N/A
10:51 am 10:51 Sunny 60 15.6 38 3.3 44 44 S 5 7 30.15 1021 10 16 N/A
11:51 am 11:51 Sunny 65 18.3 39 3.9 39 39 N N/A 30.10 1019 10 16 N/A
12:51 pm 12:51 Sunny 67 19.4 39 3.9 36 36 VRB 5 7 30.07 1018 10 16 N/A
1:51 pm 13:51 Sunny 70 21.1 38 3.3 31 31 N N/A 30.02 1017 10 16 N/A
2:51 pm 14:51 Sunny 72 22.2 38 3.3 29 29 SSW 3 6 30.00 1016 10 16 N/A
3:51 pm 15:51 Sunny 72 22.2 36 2.2 27 27 WSW 3 6 30.00 1016 10 16 N/A
4:51 pm 16:51 Sunny 72 22.2 33 0.6 24 24 NW 5 7 30.01 1016 10 16 N/A
5:51 pm 17:51 Clear 67 19.4 34 1.1 30 30 N N/A 30.01 1016 10 16 N/A
6:51 pm 18:51 Clear 62 16.7 35 1.7 37 37 N 3 6 30.03 1017 10 16 N/A
7:51 pm 19:51 Clear 59 15 36 2.2 42 42 NW 3 6 30.05 1018 10 16 N/A
8:51 pm 20:51 Clear 56 13.3 37 2.8 49 49 N N/A 30.06 1018 10 16 N/A
9:51 pm 21:51 Clear 52 11.1 36 2.2 55 55 NNE 3 6 30.06 1018 10 16 N/A
10:51 pm 22:51 Clear 53 11.7 36 2.2 52 52 S 3 6 30.06 1018 10 16 N/A
11:51 pm 23:51 Clear 53 11.7 37 2.8 55 55 SE 3 6 30.05 1018 10 16 N/A

Powered by AerisWeather